Time,TemperatureF,DewpointF,PressureIn,WindDirection,WindDirectionDegrees,WindSpeedMPH,WindSpeedGustMPH,Humidity,HourlyPrecipIn,Conditions,Clouds,dailyrainin,SoftwareType,DateUTC
2013-02-01 00:02:00,46.8,32.7,30.31,NNE,29,2.0,8.0,58,0.00,,,0.00,meteohub,2013-02-01 06:02:00,
2013-02-01 00:07:00,46.6,33.1,30.31,North,5,4.0,7.0,59,0.00,,,0.00,meteohub,2013-02-01 06:07:00,
2013-02-01 00:12:00,46.4,32.9,30.31,NNE,22,2.0,7.0,59,0.00,,,0.00,meteohub,2013-02-01 06:12:00,
2013-02-01 00:17:00,46.0,32.9,30.31,NE,56,2.0,7.0,60,0.00,,,0.00,meteohub,2013-02-01 06:17:00,
2013-02-01 00:22:00,45.9,32.7,30.31,North,349,2.0,7.0,60,0.00,,,0.00,meteohub,2013-02-01 06:22:00,
2013-02-01 00:27:00,45.9,33.3,30.31,NNW,342,6.0,8.0,61,0.00,,,0.00,meteohub,2013-02-01 06:27:00,
2013-02-01 00:32:00,45.7,33.1,30.31,NNE,21,1.0,11.0,61,0.00,,,0.00,meteohub,2013-02-01 06:32:00,
2013-02-01 00:42:00,45.1,32.5,30.32,NNW,344,4.0,11.0,61,0.00,,,0.00,meteohub,2013-02-01 06:42:00,
2013-02-01 00:47:00,45.0,32.7,30.32,NNW,334,2.0,7.0,62,0.00,,,0.00,meteohub,2013-02-01 06:47:00,
2013-02-01 00:52:00,44.8,32.5,30.32,NNE,25,0.0,5.0,62,0.00,,,0.00,meteohub,2013-02-01 06:52:00,
2013-02-01 00:57:00,44.6,32.4,30.32,North,351,3.0,5.0,62,0.00,,,0.00,meteohub,2013-02-01 06:57:00,
2013-02-01 01:02:00,44.4,32.5,30.32,NE,36,1.0,5.0,63,0.00,,,0.00,meteohub,2013-02-01 07:02:00,
2013-02-01 01:07:00,44.2,32.4,30.32,ENE,67,4.0,6.0,63,0.00,,,0.00,meteohub,2013-02-01 07:07:00,
2013-02-01 01:17:00,43.9,32.5,30.32,NE,44,2.0,5.0,64,0.00,,,0.00,meteohub,2013-02-01 07:17:00,
2013-02-01 01:22:00,43.5,32.2,30.33,ENE,65,2.0,4.0,64,0.00,,,0.00,meteohub,2013-02-01 07:22:00,
2013-02-01 01:32:00,43.3,32.4,30.33,ENE,59,3.0,8.0,65,0.00,,,0.00,meteohub,2013-02-01 07:32:00,
2013-02-01 01:37:00,43.2,31.8,30.33,NNE,13,3.0,8.0,64,0.00,,,0.00,meteohub,2013-02-01 07:37:00,
2013-02-01 01:42:00,43.2,32.2,30.33,NNE,30,4.0,8.0,65,0.00,,,0.00,meteohub,2013-02-01 07:42:00,
2013-02-01 01:47:00,43.0,32.0,30.34,North,9,1.0,5.0,65,0.00,,,0.00,meteohub,2013-02-01 07:47:00,
2013-02-01 01:52:00,42.8,31.8,30.33,NNE,24,3.0,7.0,65,0.00,,,0.00,meteohub,2013-02-01 07:52:00,
2013-02-01 01:57:00,42.6,31.6,30.33,North,5,2.0,7.0,65,0.00,,,0.00,meteohub,2013-02-01 07:57:00,
2013-02-01 02:02:00,42.4,31.8,30.34,NE,55,3.0,7.0,66,0.00,,,0.00,meteohub,2013-02-01 08:02:00,
2013-02-01 02:07:00,42.3,31.3,30.34,NE,37,2.0,7.0,65,0.00,,,0.00,meteohub,2013-02-01 08:07:00,
2013-02-01 02:12:00,42.3,31.6,30.34,NNE,19,1.0,7.0,66,0.00,,,0.00,meteohub,2013-02-01 08:12:00,
2013-02-01 02:22:00,41.9,31.5,30.35,NNW,342,2.0,6.0,66,0.00,,,0.00,meteohub,2013-02-01 08:22:00,
2013-02-01 02:27:00,41.7,31.3,30.35,North,355,2.0,6.0,66,0.00,,,0.00,meteohub,2013-02-01 08:27:00,
2013-02-01 02:32:00,41.5,31.5,30.35,NNE,12,1.0,4.0,67,0.00,,,0.00,meteohub,2013-02-01 08:32:00,
2013-02-01 02:37:00,41.4,31.3,30.35,NE,46,0.0,4.0,67,0.00,,,0.00,meteohub,2013-02-01 08:37:00,
2013-02-01 02:47:00,41.2,31.1,30.35,North,0,2.0,4.0,67,0.00,,,0.00,meteohub,2013-02-01 08:47:00,
2013-02-01 02:52:00,40.8,31.1,30.35,NE,45,2.0,4.0,68,0.00,,,0.00,meteohub,2013-02-01 08:52:00,
2013-02-01 03:02:00,40.6,30.9,30.36,North,5,2.0,4.0,68,0.00,,,0.00,meteohub,2013-02-01 09:02:00,
2013-02-01 03:07:00,40.6,30.9,30.36,NNE,22,2.0,3.0,68,0.00,,,0.00,meteohub,2013-02-01 09:07:00,
2013-02-01 03:17:00,40.3,30.9,30.36,NNE,27,1.0,4.0,69,0.00,,,0.00,meteohub,2013-02-01 09:17:00,
2013-02-01 03:22:00,40.1,30.7,30.36,NE,39,2.0,4.0,69,0.00,,,0.00,meteohub,2013-02-01 09:22:00,
2013-02-01 03:27:00,39.9,30.6,30.35,North,5,1.0,3.0,69,0.00,,,0.00,meteohub,2013-02-01 09:27:00,
2013-02-01 03:32:00,39.7,30.7,30.35,North,5,1.0,4.0,70,0.00,,,0.00,meteohub,2013-02-01 09:32:00,
2013-02-01 03:37:00,39.6,30.2,30.35,NNE,22,1.0,4.0,69,0.00,,,0.00,meteohub,2013-02-01 09:37:00,
2013-02-01 03:42:00,39.6,30.6,30.35,North,355,0.0,4.0,70,0.00,,,0.00,meteohub,2013-02-01 09:42:00,
2013-02-01 03:52:00,39.4,30.7,30.35,North,5,1.0,4.0,71,0.00,,,0.00,meteohub,2013-02-01 09:52:00,
2013-02-01 03:57:00,39.2,30.2,30.35,NNE,24,0.0,3.0,70,0.00,,,0.00,meteohub,2013-02-01 09:57:00,
2013-02-01 04:02:00,39.0,30.0,30.35,NNE,27,1.0,5.0,70,0.00,,,0.00,meteohub,2013-02-01 10:02:00,
2013-02-01 04:12:00,38.8,30.2,30.35,NNE,27,1.0,5.0,71,0.00,,,0.00,meteohub,2013-02-01 10:12:00,
2013-02-01 04:17:00,38.7,30.4,30.35,NNE,30,2.0,3.0,72,0.00,,,0.00,meteohub,2013-02-01 10:17:00,
2013-02-01 04:22:00,38.5,29.8,30.35,NNE,19,2.0,3.0,71,0.00,,,0.00,meteohub,2013-02-01 10:22:00,
2013-02-01 04:27:00,38.5,29.8,30.36,North,350,0.0,3.0,71,0.00,,,0.00,meteohub,2013-02-01 10:27:00,
2013-02-01 04:32:00,38.3,29.7,30.35,North,350,1.0,3.0,71,0.00,,,0.00,meteohub,2013-02-01 10:32:00,
2013-02-01 04:42:00,38.1,29.8,30.36,NNW,336,0.0,3.0,72,0.00,,,0.00,meteohub,2013-02-01 10:42:00,
2013-02-01 04:47:00,37.9,29.7,30.36,NNW,339,0.0,3.0,72,0.00,,,0.00,meteohub,2013-02-01 10:47:00,
2013-02-01 04:52:00,37.9,29.7,30.36,NNW,339,0.0,3.0,72,0.00,,,0.00,meteohub,2013-02-01 10:52:00,
2013-02-01 04:57:00,37.8,29.5,30.36,NNW,339,1.0,3.0,72,0.00,,,0.00,meteohub,2013-02-01 10:57:00,
2013-02-01 05:02:00,37.8,29.8,30.36,NNW,339,1.0,2.0,73,0.00,,,0.00,meteohub,2013-02-01 11:02:00,
2013-02-01 05:07:00,37.6,29.7,30.36,NNW,339,1.0,2.0,73,0.00,,,0.00,meteohub,2013-02-01 11:07:00,
2013-02-01 05:12:00,37.4,29.5,30.36,NNW,348,1.0,2.0,73,0.00,,,0.00,meteohub,2013-02-01 11:12:00,
2013-02-01 05:17:00,37.2,30.0,30.35,North,355,1.0,3.0,75,0.00,,,0.00,meteohub,2013-02-01 11:17:00,
2013-02-01 05:22:00,37.2,29.3,30.35,NE,42,2.0,3.0,73,0.00,,,0.00,meteohub,2013-02-01 11:22:00,
2013-02-01 05:32:00,37.0,29.5,30.36,NNW,334,2.0,4.0,74,0.00,,,0.00,meteohub,2013-02-01 11:32:00,
2013-02-01 05:37:00,36.9,29.3,30.36,NNW,348,3.0,4.0,74,0.00,,,0.00,meteohub,2013-02-01 11:37:00,
2013-02-01 05:42:00,36.9,28.9,30.36,NNW,327,2.0,4.0,73,0.00,,,0.00,meteohub,2013-02-01 11:42:00,
2013-02-01 05:52:00,36.7,28.8,30.37,North,355,2.0,4.0,73,0.00,,,0.00,meteohub,2013-02-01 11:52:00,
2013-02-01 05:57:00,36.7,28.8,30.37,NNW,340,2.0,5.0,73,0.00,,,0.00,meteohub,2013-02-01 11:57:00,
2013-02-01 06:02:00,36.3,28.6,30.36,North,355,2.0,5.0,73,0.00,,,0.00,meteohub,2013-02-01 12:02:00,
2013-02-01 06:07:00,36.3,28.8,30.37,NNE,17,2.0,5.0,74,0.00,,,0.00,meteohub,2013-02-01 12:07:00,
2013-02-01 06:12:00,36.1,28.6,30.37,North,0,3.0,5.0,74,0.00,,,0.00,meteohub,2013-02-01 12:12:00,
2013-02-01 06:17:00,36.1,28.6,30.37,North,5,2.0,5.0,74,0.00,,,0.00,meteohub,2013-02-01 12:17:00,
2013-02-01 06:22:00,36.0,28.4,30.38,North,0,1.0,5.0,74,0.00,,,0.00,meteohub,2013-02-01 12:22:00,
2013-02-01 06:27:00,35.8,28.6,30.38,NNE,18,2.0,5.0,75,0.00,,,0.00,meteohub,2013-02-01 12:27:00,
2013-02-01 06:32:00,35.6,28.4,30.38,North,5,3.0,4.0,75,0.00,,,0.00,meteohub,2013-02-01 12:32:00,
2013-02-01 06:42:00,35.4,28.2,30.39,North,5,2.0,5.0,75,0.00,,,0.00,meteohub,2013-02-01 12:42:00,
2013-02-01 06:47:00,35.4,28.2,30.39,NNE,30,2.0,5.0,75,0.00,,,0.00,meteohub,2013-02-01 12:47:00,
2013-02-01 06:52:00,35.2,28.0,30.38,NE,42,3.0,5.0,75,0.00,,,0.00,meteohub,2013-02-01 12:52:00,
2013-02-01 07:02:00,35.1,28.2,30.39,NNE,26,1.0,4.0,76,0.00,,,0.00,meteohub,2013-02-01 13:02:00,
2013-02-01 07:07:00,34.9,28.0,30.39,NNE,18,0.0,5.0,76,0.00,,,0.00,meteohub,2013-02-01 13:07:00,
2013-02-01 07:12:00,34.7,27.9,30.39,NNE,30,2.0,5.0,76,0.00,,,0.00,meteohub,2013-02-01 13:12:00,
2013-02-01 07:22:00,34.3,27.9,30.39,NNE,30,1.0,3.0,77,0.00,,,0.00,meteohub,2013-02-01 13:22:00,
2013-02-01 07:32:00,34.2,28.4,30.39,NNE,22,1.0,3.0,79,0.00,,,0.00,meteohub,2013-02-01 13:32:00,
2013-02-01 07:37:00,34.2,28.4,30.40,NNE,33,1.0,4.0,79,0.00,,,0.00,meteohub,2013-02-01 13:37:00,
2013-02-01 07:42:00,34.2,28.4,30.40,NE,37,1.0,4.0,79,0.00,,,0.00,meteohub,2013-02-01 13:42:00,
2013-02-01 07:47:00,34.3,28.2,30.40,North,355,0.0,3.0,78,0.00,,,0.00,meteohub,2013-02-01 13:47:00,
2013-02-01 07:52:00,34.5,28.4,30.40,NNE,29,2.0,4.0,78,0.00,,,0.00,meteohub,2013-02-01 13:52:00,
2013-02-01 07:57:00,34.9,28.4,30.40,NNE,32,1.0,5.0,77,0.00,,,0.00,meteohub,2013-02-01 13:57:00,
2013-02-01 08:02:00,35.2,28.8,30.40,ENE,65,3.0,5.0,77,0.00,,,0.00,meteohub,2013-02-01 14:02:00,
2013-02-01 08:12:00,36.1,28.9,30.40,ENE,65,4.0,5.0,75,0.00,,,0.00,meteohub,2013-02-01 14:12:00,
2013-02-01 08:17:00,36.5,28.9,30.40,NE,52,3.0,8.0,74,0.00,,,0.00,meteohub,2013-02-01 14:17:00,
2013-02-01 08:27:00,37.2,29.7,30.40,ENE,57,2.0,8.0,74,0.00,,,0.00,meteohub,2013-02-01 14:27:00,
2013-02-01 08:32:00,37.6,29.7,30.40,NE,51,2.0,8.0,73,0.00,,,0.00,meteohub,2013-02-01 14:32:00,
2013-02-01 08:42:00,38.1,30.2,30.39,East,84,2.0,7.0,73,0.00,,,0.00,meteohub,2013-02-01 14:42:00,
2013-02-01 08:47:00,38.7,31.1,30.39,ENE,67,3.0,8.0,74,0.00,,,0.00,meteohub,2013-02-01 14:47:00,
2013-02-01 08:52:00,39.0,31.1,30.39,NNE,32,5.0,8.0,73,0.00,,,0.00,meteohub,2013-02-01 14:52:00,
2013-02-01 08:57:00,39.6,31.6,30.39,ENE,67,4.0,8.0,73,0.00,,,0.00,meteohub,2013-02-01 14:57:00,
2013-02-01 09:02:00,40.3,32.0,30.39,NE,44,1.0,7.0,72,0.00,,,0.00,meteohub,2013-02-01 15:02:00,
2013-02-01 09:07:00,40.8,32.2,30.39,NE,53,3.0,6.0,71,0.00,,,0.00,meteohub,2013-02-01 15:07:00,
2013-02-01 09:12:00,41.5,32.2,30.39,ENE,75,1.0,8.0,69,0.00,,,0.00,meteohub,2013-02-01 15:12:00,
2013-02-01 09:17:00,42.4,33.6,30.38,East,89,3.0,9.0,71,0.00,,,0.00,meteohub,2013-02-01 15:17:00,
2013-02-01 09:22:00,43.5,33.3,30.38,ENE,61,3.0,9.0,67,0.00,,,0.00,meteohub,2013-02-01 15:22:00,
2013-02-01 09:27:00,44.2,33.6,30.38,East,90,2.0,9.0,66,0.00,,,0.00,meteohub,2013-02-01 15:27:00,
2013-02-01 09:32:00,44.6,33.3,30.38,ENE,77,4.0,9.0,64,0.00,,,0.00,meteohub,2013-02-01 15:32:00,
2013-02-01 09:37:00,44.8,33.3,30.38,ENE,74,3.0,9.0,64,0.00,,,0.00,meteohub,2013-02-01 15:37:00,
2013-02-01 09:42:00,45.1,33.3,30.38,East,81,3.0,10.0,63,0.00,,,0.00,meteohub,2013-02-01 15:42:00,
2013-02-01 09:52:00,46.4,34.9,30.38,ENE,73,2.0,10.0,64,0.00,,,0.00,meteohub,2013-02-01 15:52:00,
2013-02-01 09:57:00,47.1,34.7,30.39,East,99,3.0,8.0,62,0.00,,,0.00,meteohub,2013-02-01 15:57:00,
2013-02-01 10:02:00,47.7,34.0,30.39,East,86,3.0,9.0,59,0.00,,,0.00,meteohub,2013-02-01 16:02:00,
2013-02-01 10:07:00,47.7,35.6,30.39,ENE,68,4.0,9.0,63,0.00,,,0.00,meteohub,2013-02-01 16:07:00,
2013-02-01 10:12:00,48.6,35.8,30.39,SE,143,3.0,9.0,61,0.00,,,0.00,meteohub,2013-02-01 16:12:00,
2013-02-01 10:17:00,48.9,35.2,30.39,ENE,68,3.0,10.0,59,0.00,,,0.00,meteohub,2013-02-01 16:17:00,
2013-02-01 10:22:00,48.9,35.6,30.39,ENE,69,5.0,10.0,60,0.00,,,0.00,meteohub,2013-02-01 16:22:00,
2013-02-01 10:27:00,49.6,35.4,30.39,East,94,2.0,10.0,58,0.00,,,0.00,meteohub,2013-02-01 16:27:00,
2013-02-01 10:32:00,50.2,35.6,30.39,ENE,67,3.0,12.0,57,0.00,,,0.00,meteohub,2013-02-01 16:32:00,
2013-02-01 10:42:00,50.7,35.1,30.39,SE,126,6.0,12.0,55,0.00,,,0.00,meteohub,2013-02-01 16:42:00,
2013-02-01 10:47:00,51.1,35.4,30.39,SE,146,5.0,8.0,55,0.00,,,0.00,meteohub,2013-02-01 16:47:00,
2013-02-01 10:52:00,51.6,36.5,30.39,East,92,2.0,9.0,56,0.00,,,0.00,meteohub,2013-02-01 16:52:00,
2013-02-01 11:02:00,52.9,36.1,30.38,East,93,2.0,10.0,53,0.00,,,0.00,meteohub,2013-02-01 17:02:00,
2013-02-01 11:07:00,52.5,36.9,30.38,ENE,67,5.0,10.0,55,0.00,,,0.00,meteohub,2013-02-01 17:07:00,
2013-02-01 11:12:00,52.9,36.7,30.38,East,98,2.0,10.0,54,0.00,,,0.00,meteohub,2013-02-01 17:12:00,
2013-02-01 11:17:00,53.2,36.5,30.38,NE,47,3.0,7.0,53,0.00,,,0.00,meteohub,2013-02-01 17:17:00,
2013-02-01 11:22:00,53.6,36.3,30.38,NE,52,1.0,7.0,52,0.00,,,0.00,meteohub,2013-02-01 17:22:00,
2013-02-01 11:27:00,54.1,36.0,30.37,SE,135,6.0,10.0,50,0.00,,,0.00,meteohub,2013-02-01 17:27:00,
2013-02-01 11:32:00,54.3,36.1,30.37,ESE,114,3.0,12.0,50,0.00,,,0.00,meteohub,2013-02-01 17:32:00,
2013-02-01 11:37:00,54.7,36.3,30.37,ESE,123,2.0,12.0,50,0.00,,,0.00,meteohub,2013-02-01 17:37:00,
2013-02-01 11:42:00,55.0,36.7,30.37,ENE,66,3.0,13.0,50,0.00,,,0.00,meteohub,2013-02-01 17:42:00,
2013-02-01 11:47:00,55.6,37.2,30.36,SE,134,7.0,13.0,50,0.00,,,0.00,meteohub,2013-02-01 17:47:00,
2013-02-01 11:52:00,55.9,37.0,30.36,East,82,2.0,11.0,49,0.00,,,0.00,meteohub,2013-02-01 17:52:00,
2013-02-01 12:02:00,55.9,37.6,30.36,ESE,105,2.0,10.0,50,0.00,,,0.00,meteohub,2013-02-01 18:02:00,
2013-02-01 12:12:00,56.1,37.2,30.35,ENE,67,1.0,10.0,49,0.00,,,0.00,meteohub,2013-02-01 18:12:00,
2013-02-01 12:17:00,56.7,37.8,30.35,ENE,69,5.0,10.0,49,0.00,,,0.00,meteohub,2013-02-01 18:17:00,
2013-02-01 12:22:00,57.0,37.0,30.34,East,92,3.0,11.0,47,0.00,,,0.00,meteohub,2013-02-01 18:22:00,
2013-02-01 12:27:00,57.4,36.1,30.34,ESE,103,2.0,12.0,45,0.00,,,0.00,meteohub,2013-02-01 18:27:00,
2013-02-01 12:32:00,57.6,37.9,30.33,East,98,2.0,12.0,48,0.00,,,0.00,meteohub,2013-02-01 18:32:00,
2013-02-01 12:37:00,57.9,37.8,30.33,East,92,6.0,12.0,47,0.00,,,0.00,meteohub,2013-02-01 18:37:00,
2013-02-01 12:42:00,58.5,37.8,30.33,ENE,74,2.0,9.0,46,0.00,,,0.00,meteohub,2013-02-01 18:42:00,
2013-02-01 12:47:00,58.3,36.5,30.32,ESE,110,1.0,9.0,44,0.00,,,0.00,meteohub,2013-02-01 18:47:00,
2013-02-01 12:52:00,58.3,37.6,30.32,ESE,107,3.0,9.0,46,0.00,,,0.00,meteohub,2013-02-01 18:52:00,
2013-02-01 12:57:00,58.5,36.7,30.32,East,90,5.0,9.0,44,0.00,,,0.00,meteohub,2013-02-01 18:57:00,
2013-02-01 13:02:00,58.6,37.9,30.31,SE,137,4.0,11.0,46,0.00,,,0.00,meteohub,2013-02-01 19:02:00,
2013-02-01 13:12:00,60.1,37.6,30.30,ESE,121,7.0,11.0,43,0.00,,,0.00,meteohub,2013-02-01 19:12:00,
2013-02-01 13:17:00,60.1,36.9,30.30,SSE,151,3.0,9.0,42,0.00,,,0.00,meteohub,2013-02-01 19:17:00,
2013-02-01 13:22:00,60.1,37.6,30.30,East,101,2.0,9.0,43,0.00,,,0.00,meteohub,2013-02-01 19:22:00,
2013-02-01 13:27:00,60.3,38.8,30.30,ESE,113,8.0,12.0,45,0.00,,,0.00,meteohub,2013-02-01 19:27:00,
2013-02-01 13:32:00,60.4,37.8,30.30,ESE,105,5.0,12.0,43,0.00,,,0.00,meteohub,2013-02-01 19:32:00,
2013-02-01 13:42:00,60.4,37.2,30.29,ENE,65,4.0,12.0,42,0.00,,,0.00,meteohub,2013-02-01 19:42:00,
2013-02-01 13:47:00,60.4,36.7,30.29,ESE,104,2.0,12.0,41,0.00,,,0.00,meteohub,2013-02-01 19:47:00,
2013-02-01 13:57:00,60.6,36.9,30.29,East,88,2.0,9.0,41,0.00,,,0.00,meteohub,2013-02-01 19:57:00,
2013-02-01 14:02:00,61.0,38.3,30.28,SE,127,6.0,9.0,43,0.00,,,0.00,meteohub,2013-02-01 20:02:00,
2013-02-01 14:12:00,61.3,37.4,30.28,ESE,108,8.0,9.0,41,0.00,,,0.00,meteohub,2013-02-01 20:12:00,
2013-02-01 14:17:00,61.5,37.0,30.28,South,171,5.0,10.0,40,0.00,,,0.00,meteohub,2013-02-01 20:17:00,
2013-02-01 14:22:00,61.9,36.7,30.27,South,183,3.0,11.0,39,0.00,,,0.00,meteohub,2013-02-01 20:22:00,
2013-02-01 14:27:00,62.1,37.4,30.27,East,98,3.0,11.0,40,0.00,,,0.00,meteohub,2013-02-01 20:27:00,
2013-02-01 14:32:00,62.4,36.5,30.27,SE,129,3.0,10.0,38,0.00,,,0.00,meteohub,2013-02-01 20:32:00,
2013-02-01 14:37:00,62.6,37.2,30.27,ESE,113,3.0,10.0,39,0.00,,,0.00,meteohub,2013-02-01 20:37:00,
2013-02-01 14:47:00,62.8,37.4,30.27,SSE,152,3.0,11.0,39,0.00,,,0.00,meteohub,2013-02-01 20:47:00,
2013-02-01 14:52:00,63.0,37.6,30.27,SSE,155,3.0,11.0,39,0.00,,,0.00,meteohub,2013-02-01 20:52:00,
2013-02-01 14:57:00,63.1,37.8,30.27,ESE,103,5.0,10.0,39,0.00,,,0.00,meteohub,2013-02-01 20:57:00,
2013-02-01 15:02:00,63.5,38.1,30.27,ESE,109,3.0,10.0,39,0.00,,,0.00,meteohub,2013-02-01 21:02:00,
2013-02-01 15:07:00,63.7,36.9,30.27,SE,142,4.0,10.0,37,0.00,,,0.00,meteohub,2013-02-01 21:07:00,
2013-02-01 15:12:00,64.0,37.2,30.26,East,100,0.0,11.0,37,0.00,,,0.00,meteohub,2013-02-01 21:12:00,
2013-02-01 15:17:00,64.2,37.4,30.26,South,180,6.0,11.0,37,0.00,,,0.00,meteohub,2013-02-01 21:17:00,
2013-02-01 15:22:00,64.0,37.2,30.26,East,96,5.0,13.0,37,0.00,,,0.00,meteohub,2013-02-01 21:22:00,
2013-02-01 15:27:00,63.9,38.5,30.26,ESE,113,2.0,13.0,39,0.00,,,0.00,meteohub,2013-02-01 21:27:00,
2013-02-01 15:32:00,63.9,37.8,30.25,East,87,6.0,13.0,38,0.00,,,0.00,meteohub,2013-02-01 21:32:00,
2013-02-01 15:42:00,63.3,37.9,30.25,SE,142,1.0,11.0,39,0.00,,,0.00,meteohub,2013-02-01 21:42:00,
2013-02-01 15:47:00,63.7,38.3,30.25,SSE,163,3.0,11.0,39,0.00,,,0.00,meteohub,2013-02-01 21:47:00,
2013-02-01 15:52:00,64.0,38.7,30.25,SSE,159,7.0,10.0,39,0.00,,,0.00,meteohub,2013-02-01 21:52:00,
2013-02-01 15:57:00,64.4,38.3,30.25,South,176,2.0,8.0,38,0.00,,,0.00,meteohub,2013-02-01 21:57:00,
2013-02-01 16:02:00,64.2,38.1,30.24,ESE,105,3.0,8.0,38,0.00,,,0.00,meteohub,2013-02-01 22:02:00,
2013-02-01 16:12:00,63.9,38.5,30.24,ESE,107,3.0,10.0,39,0.00,,,0.00,meteohub,2013-02-01 22:12:00,
2013-02-01 16:17:00,63.7,38.3,30.24,ESE,105,3.0,10.0,39,0.00,,,0.00,meteohub,2013-02-01 22:17:00,
2013-02-01 16:22:00,63.1,37.8,30.23,ESE,111,4.0,9.0,39,0.00,,,0.00,meteohub,2013-02-01 22:22:00,
2013-02-01 16:27:00,63.0,38.3,30.23,SE,142,3.0,9.0,40,0.00,,,0.00,meteohub,2013-02-01 22:27:00,
2013-02-01 16:32:00,62.8,38.7,30.23,SE,146,2.0,8.0,41,0.00,,,0.00,meteohub,2013-02-01 22:32:00,
2013-02-01 16:37:00,62.6,38.5,30.23,SSE,148,2.0,9.0,41,0.00,,,0.00,meteohub,2013-02-01 22:37:00,
2013-02-01 16:47:00,62.4,39.0,30.23,SSW,207,0.0,9.0,42,0.00,,,0.00,meteohub,2013-02-01 22:47:00,
2013-02-01 16:52:00,62.2,38.8,30.22,SSE,155,3.0,7.0,42,0.00,,,0.00,meteohub,2013-02-01 22:52:00,
2013-02-01 16:57:00,62.1,39.4,30.22,SSE,153,2.0,7.0,43,0.00,,,0.00,meteohub,2013-02-01 22:57:00,
2013-02-01 17:02:00,61.9,39.2,30.22,ESE,108,2.0,6.0,43,0.00,,,0.00,meteohub,2013-02-01 23:02:00,
2013-02-01 17:07:00,61.5,38.8,30.22,East,100,2.0,7.0,43,0.00,,,0.00,meteohub,2013-02-01 23:07:00,
2013-02-01 17:12:00,61.3,38.7,30.22,ESE,123,2.0,7.0,43,0.00,,,0.00,meteohub,2013-02-01 23:12:00,
2013-02-01 17:17:00,61.2,38.5,30.21,South,171,4.0,7.0,43,0.00,,,0.00,meteohub,2013-02-01 23:17:00,
2013-02-01 17:22:00,61.0,38.8,30.21,SSE,159,1.0,9.0,44,0.00,,,0.00,meteohub,2013-02-01 23:22:00,
2013-02-01 17:27:00,60.6,38.7,30.22,South,169,1.0,9.0,44,0.00,,,0.00,meteohub,2013-02-01 23:27:00,
2013-02-01 17:32:00,60.4,37.8,30.22,South,169,1.0,9.0,43,0.00,,,0.00,meteohub,2013-02-01 23:32:00,
2013-02-01 17:37:00,60.1,38.1,30.22,SE,144,5.0,5.0,44,0.00,,,0.00,meteohub,2013-02-01 23:37:00,
2013-02-01 17:42:00,59.7,37.8,30.21,SSE,153,2.0,6.0,44,0.00,,,0.00,meteohub,2013-02-01 23:42:00,
2013-02-01 17:47:00,59.5,37.6,30.22,SE,146,0.0,6.0,44,0.00,,,0.00,meteohub,2013-02-01 23:47:00,
2013-02-01 17:52:00,59.4,37.9,30.22,SE,146,1.0,5.0,45,0.00,,,0.00,meteohub,2013-02-01 23:52:00,
2013-02-01 17:57:00,58.8,37.6,30.21,SE,146,0.0,4.0,45,0.00,,,0.00,meteohub,2013-02-01 23:57:00,
2013-02-01 18:02:00,58.5,37.8,30.21,SE,146,0.0,4.0,46,0.00,,,0.00,meteohub,2013-02-02 00:02:00,
2013-02-01 18:12:00,57.6,38.5,30.21,SE,146,0.0,2.0,49,0.00,,,0.00,meteohub,2013-02-02 00:12:00,
2013-02-01 18:17:00,56.8,38.5,30.20,SE,146,0.0,2.0,50,0.00,,,0.00,meteohub,2013-02-02 00:17:00,
2013-02-01 18:27:00,55.8,37.9,30.20,SE,146,0.0,1.0,51,0.00,,,0.00,meteohub,2013-02-02 00:27:00,
2013-02-01 18:32:00,55.0,37.8,30.21,SE,146,0.0,1.0,52,0.00,,,0.00,meteohub,2013-02-02 00:32:00,
2013-02-01 18:42:00,54.3,37.9,30.21,SE,146,0.0,0.0,54,0.00,,,0.00,meteohub,2013-02-02 00:42:00,
2013-02-01 18:52:00,53.8,37.9,30.21,SE,146,0.0,0.0,55,0.00,,,0.00,meteohub,2013-02-02 00:52:00,
2013-02-01 18:57:00,53.4,39.4,30.21,SE,146,0.0,0.0,59,0.00,,,0.00,meteohub,2013-02-02 00:57:00,
2013-02-01 19:02:00,53.1,38.7,30.21,SE,146,1.0,0.0,58,0.00,,,0.00,meteohub,2013-02-02 01:02:00,
2013-02-01 19:07:00,52.5,39.0,30.21,SE,146,0.0,1.0,60,0.00,,,0.00,meteohub,2013-02-02 01:07:00,
2013-02-01 19:12:00,52.3,38.8,30.21,SE,146,1.0,2.0,60,0.00,,,0.00,meteohub,2013-02-02 01:12:00,
2013-02-01 19:17:00,52.0,39.0,30.21,SE,134,0.0,2.0,61,0.00,,,0.00,meteohub,2013-02-02 01:17:00,
2013-02-01 19:22:00,51.6,39.0,30.22,ESE,109,0.0,2.0,62,0.00,,,0.00,meteohub,2013-02-02 01:22:00,
2013-02-01 19:27:00,51.4,38.8,30.22,East,96,0.0,2.0,62,0.00,,,0.00,meteohub,2013-02-02 01:27:00,
2013-02-01 19:32:00,51.3,39.0,30.22,East,96,2.0,2.0,63,0.00,,,0.00,meteohub,2013-02-02 01:32:00,
2013-02-01 19:37:00,51.1,38.8,30.22,East,96,1.0,3.0,63,0.00,,,0.00,meteohub,2013-02-02 01:37:00,
2013-02-01 19:42:00,50.7,39.0,30.21,ESE,123,1.0,3.0,64,0.00,,,0.00,meteohub,2013-02-02 01:42:00,
2013-02-01 19:52:00,50.5,39.2,30.21,ESE,106,2.0,3.0,65,0.00,,,0.00,meteohub,2013-02-02 01:52:00,
2013-02-01 19:57:00,50.5,39.6,30.21,ESE,121,1.0,4.0,66,0.00,,,0.00,meteohub,2013-02-02 01:57:00,
2013-02-01 20:02:00,50.5,39.6,30.21,East,82,3.0,5.0,66,0.00,,,0.00,meteohub,2013-02-02 02:02:00,
2013-02-01 20:07:00,50.5,39.6,30.21,SE,126,2.0,5.0,66,0.00,,,0.00,meteohub,2013-02-02 02:07:00,
2013-02-01 20:12:00,50.5,39.6,30.21,ESE,108,2.0,5.0,66,0.00,,,0.00,meteohub,2013-02-02 02:12:00,
2013-02-01 20:22:00,50.2,39.6,30.21,ESE,105,1.0,5.0,67,0.00,,,0.00,meteohub,2013-02-02 02:22:00,
2013-02-01 20:32:00,49.8,40.1,30.21,East,88,0.0,4.0,69,0.00,,,0.00,meteohub,2013-02-02 02:32:00,
2013-02-01 20:37:00,49.8,40.1,30.21,ESE,103,1.0,4.0,69,0.00,,,0.00,meteohub,2013-02-02 02:37:00,
2013-02-01 20:47:00,49.8,40.1,30.22,ESE,104,1.0,3.0,69,0.00,,,0.00,meteohub,2013-02-02 02:47:00,
2013-02-01 20:52:00,49.8,40.1,30.22,ESE,119,0.0,4.0,69,0.00,,,0.00,meteohub,2013-02-02 02:52:00,
2013-02-01 20:57:00,49.6,40.3,30.22,ESE,106,1.0,4.0,70,0.00,,,0.00,meteohub,2013-02-02 02:57:00,
2013-02-01 21:07:00,49.5,40.1,30.22,ESE,105,1.0,5.0,70,0.00,,,0.00,meteohub,2013-02-02 03:07:00,
2013-02-01 21:12:00,49.5,40.1,30.22,ESE,109,1.0,5.0,70,0.00,,,0.00,meteohub,2013-02-02 03:12:00,
2013-02-01 21:17:00,49.5,40.1,30.22,ESE,109,2.0,4.0,70,0.00,,,0.00,meteohub,2013-02-02 03:17:00,
2013-02-01 21:22:00,49.3,39.9,30.22,East,97,3.0,3.0,70,0.00,,,0.00,meteohub,2013-02-02 03:22:00,
2013-02-01 21:27:00,49.3,40.3,30.22,ESE,115,2.0,4.0,71,0.00,,,0.00,meteohub,2013-02-02 03:27:00,
2013-02-01 21:32:00,49.1,40.1,30.22,ESE,111,0.0,4.0,71,0.00,,,0.00,meteohub,2013-02-02 03:32:00,
2013-02-01 21:37:00,48.9,39.9,30.22,ESE,115,1.0,4.0,71,0.00,,,0.00,meteohub,2013-02-02 03:37:00,
2013-02-01 21:42:00,48.9,39.9,30.22,ESE,119,1.0,5.0,71,0.00,,,0.00,meteohub,2013-02-02 03:42:00,
2013-02-01 21:47:00,48.7,39.7,30.22,SE,135,1.0,5.0,71,0.00,,,0.00,meteohub,2013-02-02 03:47:00,
2013-02-01 21:52:00,48.7,40.1,30.22,SE,132,1.0,3.0,72,0.00,,,0.00,meteohub,2013-02-02 03:52:00,
2013-02-01 21:57:00,48.6,39.9,30.23,SSE,154,0.0,3.0,72,0.00,,,0.00,meteohub,2013-02-02 03:57:00,
2013-02-01 22:02:00,48.6,39.9,30.23,ESE,119,1.0,7.0,72,0.00,,,0.00,meteohub,2013-02-02 04:02:00,
2013-02-01 22:07:00,48.6,40.3,30.23,SE,128,1.0,7.0,73,0.00,,,0.00,meteohub,2013-02-02 04:07:00,
2013-02-01 22:12:00,48.4,40.1,30.23,SE,126,4.0,7.0,73,0.00,,,0.00,meteohub,2013-02-02 04:12:00,
2013-02-01 22:17:00,48.4,40.1,30.23,ESE,116,0.0,5.0,73,0.00,,,0.00,meteohub,2013-02-02 04:17:00,
2013-02-01 22:22:00,48.0,39.7,30.23,ESE,119,2.0,5.0,73,0.00,,,0.00,meteohub,2013-02-02 04:22:00,
2013-02-01 22:27:00,48.0,40.1,30.23,ESE,105,2.0,5.0,74,0.00,,,0.00,meteohub,2013-02-02 04:27:00,
2013-02-01 22:32:00,47.8,39.9,30.23,SE,124,3.0,10.0,74,0.00,,,0.00,meteohub,2013-02-02 04:32:00,
2013-02-01 22:37:00,48.0,40.1,30.22,SE,126,4.0,10.0,74,0.00,,,0.00,meteohub,2013-02-02 04:37:00,
2013-02-01 22:42:00,48.0,40.1,30.22,ESE,107,5.0,10.0,74,0.00,,,0.00,meteohub,2013-02-02 04:42:00,
2013-02-01 22:47:00,48.2,40.3,30.22,SE,144,4.0,10.0,74,0.00,,,0.00,meteohub,2013-02-02 04:47:00,
2013-02-01 22:52:00,48.4,40.5,30.22,ESE,114,2.0,10.0,74,0.00,,,0.00,meteohub,2013-02-02 04:52:00,
2013-02-01 22:57:00,48.6,40.3,30.22,SSE,158,2.0,10.0,73,0.00,,,0.00,meteohub,2013-02-02 04:57:00,
2013-02-01 23:02:00,48.6,40.3,30.22,SSE,155,3.0,8.0,73,0.00,,,0.00,meteohub,2013-02-02 05:02:00,
2013-02-01 23:07:00,48.6,40.3,30.22,SSE,167,2.0,5.0,73,0.00,,,0.00,meteohub,2013-02-02 05:07:00,
2013-02-01 23:12:00,48.6,40.3,30.22,South,177,1.0,7.0,73,0.00,,,0.00,meteohub,2013-02-02 05:12:00,
2013-02-01 23:17:00,48.4,40.1,30.22,ESE,114,2.0,7.0,73,0.00,,,0.00,meteohub,2013-02-02 05:17:00,
2013-02-01 23:22:00,48.4,40.5,30.22,SSE,155,0.0,5.0,74,0.00,,,0.00,meteohub,2013-02-02 05:22:00,
2013-02-01 23:27:00,48.2,40.3,30.22,SSE,148,1.0,5.0,74,0.00,,,0.00,meteohub,2013-02-02 05:27:00,
2013-02-01 23:32:00,48.0,40.1,30.22,SE,132,1.0,5.0,74,0.00,,,0.00,meteohub,2013-02-02 05:32:00,
2013-02-01 23:42:00,47.8,40.3,30.22,SE,145,1.0,4.0,75,0.00,,,0.00,meteohub,2013-02-02 05:42:00,
2013-02-01 23:47:00,47.7,40.1,30.22,SSE,158,0.0,4.0,75,0.00,,,0.00,meteohub,2013-02-02 05:47:00,
2013-02-01 23:52:00,47.7,40.1,30.22,SSE,155,1.0,5.0,75,0.00,,,0.00,meteohub,2013-02-02 05:52:00,
2013-02-01 23:57:00,47.7,40.1,30.22,SE,142,3.0,5.0,75,0.00,,,0.00,meteohub,2013-02-02 05:57:00,